This demonstration page uses our WeatherBlox Daily Observations layout. Learn more.

41.86663, -103.66717

Hourly Observations for December 6, 2019

Temp ( °F °C ) Dew Point ( °F °C ) Humidity (%) Winds ( mph kmh ) Pressure ( in mb ) Visibility ( mi km ) Precip ( " mm )
12:53 am 00:53 Mostly Cloudy with Freezing Fog 28 -2.2 28 -2.2 100 100 SSE 7 11 30.33 1027 0.25 0.402335 0 0
1:00 am 01:00 Mostly Cloudy with Freezing Fog 28 -2 28 -2 100 100 SSE 8 13 30.41 1030 0.5 0.80467 0 0
1:11 am 01:11 Mostly Cloudy with Freezing Fog 28 -2.2 28 -2.2 100 100 SSE 6 9 30.41 1030 0.25 0.402335 0 0
1:23 am 01:23 Mostly Cloudy with Freezing Fog 27 -2.8 27 -2.8 100 100 S 7 11 30.43 1030 0.5 0.80467 0 0
1:53 am 01:53 Mostly Cloudy with Freezing Fog 27 -2.8 27 -2.8 100 100 SSE 6 9 30.33 1027 0.25 0.402335 0 0
2:04 am 02:04 Mostly Cloudy with Freezing Fog 27 -3 27 -3 100 100 SE 8 13 30.43 1031 0.5 0.80467 0 0
2:53 am 02:53 Mostly Cloudy with Mist and Fog 27 -2.8 27 -2.8 100 100 SE 7 11 30.3 1026 0.75 1.207005 0 0
3:24 am 03:24 Mostly Cloudy with Freezing Fog 27 -2.8 27 -2.8 100 100 SE 8 13 30.4 1029 0.25 0.402335 0 0
3:32 am 03:32 Mostly Cloudy with Freezing Fog 27 -2.8 27 -2.8 100 100 SE 7 11 30.4 1029 0.5 0.80467 0 0
3:41 am 03:41 Mostly Cloudy with Freezing Fog 27 -2.8 27 -2.8 100 100 SE 7 11 30.4 1029 0.25 0.402335 0 0
3:49 am 03:49 Mostly Cloudy with Freezing Fog 27 -3 27 -3 100 100 SE 7 11 30.4 1030 0.5 0.80467 0 0
3:53 am 03:53 Mostly Cloudy with Freezing Fog 27 -2.8 27 -2.8 100 100 SE 6 9 30.3 1026 0.5 0.80467 0 0
4:53 am 04:53 Mostly Cloudy with Freezing Fog 27 -2.8 27 -2.8 100 100 SE 7 11 30.31 1026 0.5 0.80467 0 0
5:16 am 05:16 Mostly Cloudy with Freezing Fog 27 -2.8 27 -2.8 100 100 SE 8 13 30.39 1029 0.25 0.402335 0 0
5:31 am 05:31 Mostly Cloudy with Freezing Fog 27 -2.8 27 -2.8 100 100 ESE 6 9 30.39 1029 0.5 0.80467 0 0
5:40 am 05:40 Mostly Cloudy with Freezing Fog 27 -2.8 26 -3.3 96 96 SE 8 13 30.39 1029 0.25 0.402335 0 0
5:50 am 05:50 Mostly Cloudy with Freezing Fog 27 -3 27 -3 100 100 SE 6 9 30.39 1029 0.5 0.80467 0 0
5:53 am 05:53 Mostly Cloudy with Freezing Fog 27 -2.8 26 -3.3 96 96 ESE 6 9 30.32 1027 0.5 0.80467 0 0
6:03 am 06:03 Mostly Cloudy with Freezing Fog 27 -2.8 26 -3.3 96 96 ESE 8 13 30.39 1029 0.25 0.402335 0 0
6:53 am 06:53 Mostly Cloudy with Freezing Fog 26 -3.3 25 -3.9 96 96 ESE 6 9 30.33 1027 0.25 0.402335 0 0
7:53 am 07:53 Mostly Cloudy with Freezing Fog 26 -3.3 26 -3.3 100 100 SSE 5 7 30.34 1027 N/A 0 0
8:53 am 08:53 Mostly Cloudy with Freezing Fog 26 -3.3 26 -3.3 100 100 SE 5 7 30.35 1028 0.25 0.402335 0 0
9:53 am 09:53 Mostly Cloudy with Freezing Fog 28 -2.2 27 -2.8 96 96 Calm 30.34 1027 0.25 0.402335 0 0
10:12 am 10:12 Mostly Cloudy with Freezing Fog 29 -1.7 28 -2.2 96 96 Calm 30.38 1029 0.5 0.80467 0 0
10:20 am 10:20 Mostly Cloudy with Freezing Fog 29 -1.7 27 -2.8 92 92 NNE 3 6 30.38 1029 0.25 0.402335 0 0
10:45 am 10:45 Mostly Cloudy with Freezing Fog 30 -1.1 29 -1.7 96 96 N 6 9 30.37 1028 0.5 0.80467 0 0
10:53 am 10:53 Mostly Cloudy with Freezing Fog 29 -1.7 28 -2.2 96 96 NNW 3 6 30.32 1027 0.25 0.402335 0 0
11:00 am 11:00 Cloudy with Mist and Fog 30 -1.1 29 -1.7 96 96 NW 5 7 30.36 1028 1 1.60934 0 0
11:23 am 11:23 Cloudy with Mist and Fog 31 -0.6 29 -1.7 92 92 WNW 3 6 30.34 1027 3 4.82802 0 0
11:53 am 11:53 Cloudy with Mist and Fog 32 0 31 -0.6 96 96 Calm 30.29 1026 6 9.65604 0 0
12:21 pm 12:21 Mostly Sunny 33 0.6 31 -0.6 92 92 Calm 30.3 1026 10 16.0934 0 0
12:53 pm 12:53 Sunny 33 0.6 32 0 96 96 Calm 30.26 1025 10 16.0934 0 0
1:53 pm 13:53 Sunny 40 4.4 33 0.6 77 77 Calm 30.22 1024 10 16.0934 0 0
2:53 pm 14:53 Sunny 42 5.6 33 0.6 71 71 VRB 3 6 30.22 1023 10 16.0934 0 0
3:53 pm 15:53 Sunny 45 7.2 33 0.6 63 63 Calm 30.22 1023 10 16.0934 0 0
4:53 pm 16:53 Clear 41 5 31 -0.6 67 67 W 8 13 30.23 1024 10 16.0934 0 0
5:53 pm 17:53 Clear 39 3.9 30 -1.1 70 70 WNW 3 6 30.24 1024 10 16.0934 0 0
6:53 pm 18:53 Clear 36 2.2 29 -1.7 76 76 NW 3 6 30.26 1025 10 16.0934 0 0
7:53 pm 19:53 Clear 29 -1.7 26 -3.3 89 89 Calm 30.27 1025 10 16.0934 0 0
8:53 pm 20:53 Clear 31 -0.6 27 -2.8 85 85 NE 5 7 30.25 1024 10 16.0934 0 0
9:53 pm 21:53 Clear 30 -1.1 26 -3.3 85 85 N 7 11 30.24 1024 10 16.0934 0 0
10:53 pm 22:53 Clear 27 -2.8 25 -3.9 92 92 NNE 8 13 30.24 1024 10 16.0934 0 0
11:53 pm 23:53 Clear 26 -3.3 24 -4.4 92 92 Calm 30.22 1023 10 16.0934 0 0

Powered by AerisWeather